Location: Bottenau
(48.5138°N, 8.0462°E)
Time: 04:28:06
(UTC+00:00)

Cosmos 2227 Rocket - Pass Details

Date: 18 April 2021
Orbit: 840 x 844 km, 71.0° (Epoch: 09 May)

Event Time Altitude Azimuth Distance (km) Brightness Sun altitude
Exits shadow 19:57:05 22° 126° (SE) 1,781 3.2 -14.6°
Maximum altitude 19:58:38 24° 102° (ESE) 1,666 3.2 -14.8°
Drops below altitude 10° 20:03:05 10° 50° (NE) 2,470 4.5 -15.3°
Sets 20:05:57 0° 37° (NE) 3,410 5.4 -15.7°
